Location: *
(45.9500°N, 9.0833°E)
Time: 01:57:48
(UTC+00:00)

SR - Pass Details

Date: 19 June 2021
Orbit: 577 x 878 km, 66.7° (Epoch: 23 July)

Event Time Altitude Azimuth Distance (km) Brightness Sun altitude
Rises 17:20:00 0° 244° (WSW) 3,464 ? 17.5°
Reaches altitude 10° 17:22:46 10° 254° (WSW) 2,531 ? 17.0°
Maximum altitude 17:28:00 32° 317° (NW) 1,459 ? 16.1°
Drops below altitude 10° 17:33:08 10° 19° (NNE) 2,475 ? 15.3°
Sets 17:35:50 0° 30° (NNE) 3,376 ? 14.8°
